Location: Altenst�hlen
(53.5567°N, 8.9425°E)
Time: 01:50:09
(UTC+00:00)

Cosmos 2150 Rocket - Pass Details

Date: 23 October 2019
Orbit: 749 x 808 km, 74.0° (Epoch: 21 November)

Event Time Altitude Azimuth Distance (km) Brightness Sun altitude
Rises 18:15:35 0° 334° (NNW) 3,334 7.8 -19.2°
Reaches altitude 10° 18:18:05 10° 340° (NNW) 2,395 6.9 -19.5°
Maximum altitude 18:23:25 52° 56° (ENE) 995 4.2 -20.3°
Enters shadow 18:24:41 42° 99° (E) 1,120 4.3 -20.5°
